Hourly Weather Roundup
Issued by NWS Central Illinois

Home | Current Version | Previous Version | Text Only | Print | Product List | Glossary On
Versions: 1 2 3 4 5 6 7 8 9 10 11 12 13 14 15 16 17 18 19 20 21 22 23 24 25 26 27 28 29 30 31 32 33 34 35 36 37 38 39 40 41 42 43 44 45 46 47 48 49 50
000
NZUS43 KILX 222010
HWRILX

AREA WEATHER ROUNDUP
NATIONAL WEATHER SERVICE, LINCOLN IL
300 PM CDT MON SEP 22 2014


CITY           SKY/WX    TMP DP  RH WIND       PRES   REMARKS
BLOOMINGTON    SUNNY     69  36  29 N6        30.27F
CHAMPAIGN      SUNNY     67  43  41 CALM      30.26F
DECATUR        SUNNY     70  46  42 N8        30.26F
FLORA          SUNNY     70  44  38 N9        30.25F
GALESBURG      SUNNY     75  47  38 N5        30.27F
JACKSONVILLE   SUNNY     72  41  32 N3        30.27F HAZE
LACON          SUNNY     67  41  39 NE3       30.26F
LAWRENCEVILLE  SUNNY     70  45  40 N10       30.24F
LITCHFIELD     SUNNY     70  45  40 N7        30.25F
$$


CITY           SKY/WX    TMP DP  RH WIND       PRES   REMARKS
LINCOLN        SUNNY     72  42  34 CALM      30.24F
MACOMB         SUNNY     69  40  34 N7        30.29F
MATTOON        SUNNY     69  43  38 MISG      30.24F
MT CARMEL AP   SUNNY     72  41  33 NW5       30.23F
OLNEY-NOBLE AP SUNNY     70  45  40 N8        30.25F
PARIS          SUNNY     68  46  45 NE5       30.26F
PEORIA         SUNNY     70  44  39 NE5       30.26F
PONTIAC        SUNNY     70  41  35 N7G18     30.26S
RANTOUL        SUNNY     69  40  34 N5        30.26F
ROBINSON       SUNNY     70  47  44 N3        30.25F
SPRINGFIELD    SUNNY     71  46  40 CALM      30.26F
TAYLORVILLE    SUNNY     70  43  37 W6        30.25F
$$

...REGIONAL REPORTS...


CITY           SKY/WX    TMP DP  RH WIND       PRES   REMARKS
CHICAGO O`HARE SUNNY     62  40  44 VRB3      30.24F
KANKAKEE       SUNNY     65  44  47 NE5       30.26F
MOLINE         SUNNY     68  43  40 SW3       30.26F
MOUNT VERNON   SUNNY     70  46  43 N7        30.26F
PITTSFIELD     SUNNY     72  38  29 NE3       30.27F
QUINCY         SUNNY     70  43  37 NW6       30.26F
ROCKFORD       SUNNY     68  43  40 NW5       30.26F
$$


CITY           SKY/WX    TMP DP  RH WIND       PRES   REMARKS
BURLINGTON     LGT RAIN  70  45  40 CALM      30.26F
CEDAR RAPIDS   SUNNY     69  49  48 VRB6      30.26F
DES MOINES     MOSUNNY   72  49  44 CALM      30.25F
KIRKSVILLE     SUNNY     71  47  42 NE3       30.28F
OTTUMWA        SUNNY     70  49  47 W6        30.26F
ST LOUIS       SUNNY     74  49  41 N7        30.26F
$$


CITY           SKY/WX    TMP DP  RH WIND       PRES   REMARKS
TERRE HAUTE    SUNNY     68  44  42 N9        30.25F
EVANSVILLE     SUNNY     71  45  39 N9        30.24S
INDIANAPOLIS   MOSUNNY   65  40  39 NW8       30.24F
LAFAYETTE      SUNNY     65  44  46 VRB3      30.24F
MADISON        MOSUNNY   68  46  45 W10       30.23F
MILWAUKEE      MOSUNNY   67  43  41 NW10      30.23F
$$





USA.gov is the U.S. government's official web portal to all federal, state and local government web resources and services.